Weather History for LICR - November, 2011

Change the Weather History Date:

Tuesday, November 22, 2011

  Actual Average Record
Temperature  
Mean Temperature 67 °F -  
Max Temperature 68 °F 61 °F 71 °F (1996)
Min Temperature 64 °F 51 °F 46 °F (2004)
Cooling Degree Days 2    
Growing Degree Days 17 (Base 50)    
Moisture  
Dew Point 57 °F    
Average Humidity 72    
Maximum Humidity 88    
Minimum Humidity 56    
Precipitation  
Precipitation 0.00 in - - ()
Sea Level Pressure  
Sea Level Pressure 29.92 in    
Wind  
Wind Speed 25 mph ()    
Max Wind Speed 36 mph    
Max Gust Speed 54 mph    
Visibility 6.0 miles    
Events Rain , Thunderstorm    
Averages and records for this station are not official NWS values.
T = Trace of Precipitation, MM = Missing Value Source: Averaged Metar Reports

Daily Weather History Graph

Daily Weather History Graph

Search for Another Location

Airport or City:

Trip Planner

Search our weather history database for the weather conditions in past years. The results will help you decide how hot, cold, wet, or windy it might be!

Date:

Astronomy

Nov. 22, 2011 Rise Set
Actual Time 6:45 AM CET 4:41 PM CET
Civil Twilight 6:16 AM CET 5:09 PM CET
Nautical Twilight 5:44 AM CET 5:42 PM CET
Astronomical Twilight 5:12 AM CET 6:13 PM CET
Moon 3:16 AM CET (11/22) 2:27 PM CET (11/22)
Length of Visible Light 10h 53m
Length of Day
9h 56m
Waning Crescent, 11% of the Moon is Illuminated
Nov 22
Waning Crescent
Nov 25
New
Dec 2
First Quarter
Dec 10
Full
Dec 18
Last Quarter

Hourly Weather History & Observations

Time (CET) Temp. Dew Point Humidity Pressure Visibility Wind Dir Wind Speed Gust Speed Precip Events Conditions
6:00 AM 66.2 °F 51.8 °F 60% 29.95 in 6.2 mi ESE 25.3 mph - N/A   Scattered Clouds
6:50 AM 66.2 °F 51.8 °F 60% 29.92 in 6.2 mi ESE 27.6 mph 49.5 mph N/A   Mostly Cloudy
7:50 AM 66.2 °F 53.6 °F 64% 29.95 in 6.2 mi ESE 26.5 mph 40.3 mph N/A   Mostly Cloudy
8:50 AM 68.0 °F 51.8 °F 56% 29.95 in 6.2 mi SE 29.9 mph 48.3 mph N/A   Mostly Cloudy
9:50 AM 68.0 °F 55.4 °F 64% 29.95 in 6.2 mi SE 32.2 mph 47.2 mph N/A   Mostly Cloudy
10:50 AM 68.0 °F 55.4 °F 64% 29.92 in 6.2 mi SE 35.7 mph 54.1 mph N/A   Mostly Cloudy
11:50 AM 68.0 °F 57.2 °F 68% 29.89 in 6.2 mi SE 35.7 mph 48.3 mph N/A   Mostly Cloudy
11:54 AM 68.0 °F 57.2 °F 68% 29.89 in 6.2 mi SE 35.7 mph 48.3 mph N/A Rain Rain
12:50 PM 66.2 °F 59.0 °F 78% 29.89 in 6.2 mi SE 32.2 mph 44.9 mph N/A Rain Rain
1:50 PM 66.2 °F 59.0 °F 78% 29.89 in 6.2 mi SSE 32.2 mph 44.9 mph N/A   Mostly Cloudy
2:50 PM 66.2 °F 59.0 °F 78% 29.89 in 6.2 mi SSE 31.1 mph 46.0 mph N/A   Mostly Cloudy
3:50 PM 68.0 °F 59.0 °F 73% 29.89 in 5.6 mi SSE 29.9 mph 47.2 mph N/A   Mostly Cloudy
4:50 PM 68.0 °F 59.0 °F 73% 29.89 in 5.0 mi SSE 26.5 mph 40.3 mph N/A Thunderstorm Thunderstorm
5:05 PM 68.0 °F 59.0 °F 73% 29.89 in 4.3 mi SSE 23.0 mph 39.1 mph N/A Thunderstorm Thunderstorm
5:50 PM 68.0 °F 59.0 °F 73% 29.89 in 5.6 mi SSE 26.5 mph 39.1 mph N/A Thunderstorm Thunderstorm
6:50 PM 68.0 °F 59.0 °F 73% 29.92 in 5.6 mi SSE 26.5 mph 41.4 mph N/A Thunderstorm Thunderstorm
7:50 PM 68.0 °F 59.0 °F 73% 29.92 in 6.2 mi SSE 25.3 mph 41.4 mph N/A Thunderstorm Scattered Clouds
8:50 PM 66.2 °F 60.8 °F 83% 29.92 in 6.2 mi SSE 21.9 mph - N/A Thunderstorm Scattered Clouds
9:50 PM 66.2 °F 59.0 °F 78% 29.95 in 6.2 mi SSE 18.4 mph - N/A   Partly Cloudy
10:50 PM 66.2 °F 59.0 °F 78% 29.95 in 6.2 mi South 19.6 mph - N/A   Partly Cloudy
11:50 PM 64.4 °F 60.8 °F 88% 29.95 in 6.2 mi SSE 18.4 mph - N/A   Partly Cloudy